EW3730 Weather Reports


Display with metric or nautical units.
time (UTC)temp
F
wind
direction
speed
MPH
gust
MPH
rain 1hr
in
rain 24hr
in
rain mn
in
humidity
%
barometer
mb
20260504140143 61 227 4.0 10.0 0.00 0.00 0.00 44 1007.8
20260504130537 57 251 5.0 16.0 0.00 0.00 0.00 47 1008.2
20260504110508 50 245 3.0 9.0 0.00 0.00 0.00 52 1008.3
20260504082000 50 181 2.0 7.0 0.00 0.00 0.00 51 1009.3
20260504081500 50 225 3.0 10.0 0.00 0.00 0.00 51 1009.3
20260504081000 51 154 3.0 10.0 0.00 0.00 0.00 50 1009.2
20260504080506 51 244 3.0 8.0 0.00 0.00 0.00 50 1009.3
20260504080500 51 208 4.0 12.0 0.00 0.00 0.00 50 1009.2
20260504050420 53 214 3.0 10.0 0.00 0.00 0.00 45 1011.2
20260504045920 53 219 4.0 14.0 0.00 0.00 0.00 45 1011.2
20260504045418 53 179 3.0 14.0 0.00 0.00 0.00 45 1011.1
20260504044919 54 227 3.0 10.0 0.00 0.00 0.00 45 1011.2
20260504044416 54 221 4.0 13.0 0.00 0.00 0.00 45 1011.2
20260504043916 54 182 4.0 13.0 0.00 0.00 0.00 44 1011.2
20260504043646 54 217 3.0 10.0 0.00 0.00 0.00 44 1011.2
20260504042916 54 179 3.0 9.0 0.00 0.00 0.00 45 1011.2
20260504042416 53 139 3.0 9.0 0.00 0.00 0.00 45 1011.3
20260504041916 53 110 3.0 9.0 0.00 0.00 0.00 45 1011.3
20260504041416 53 213 3.0 10.0 0.00 0.00 0.00 45 1011.4
20260504040916 53 205 4.0 12.0 0.00 0.00 0.00 45 1011.3
20260504040419 53 182 4.0 12.0 0.00 0.00 0.00 45 1011.6
20260504035918 53 159 3.0 9.0 0.00 0.00 0.00 45 1011.5
20260504035412 53 172 2.0 7.0 0.00 0.00 0.00 45 1011.6
20260504034906 53 182 3.0 9.0 0.00 0.00 0.00 45 1011.6
20260504034400 53 168 3.0 9.0 0.00 0.00 0.00 45 1011.6
20260504033854 53 155 2.0 8.0 0.00 0.00 0.00 45 1011.7
20260504033348 53 170 3.0 10.0 0.00 0.00 0.00 45 1011.8
20260504032842 53 215 3.0 10.0 0.00 0.00 0.00 45 1011.8
20260504032336 53 145 2.0 10.0 0.00 0.00 0.00 45 1011.8
20260504032102 53 257 3.0 10.0 0.00 0.00 0.00 45 1011.8
20260504031324 53 225 4.0 10.0 0.00 0.00 0.00 45 1011.9
20260504030818 53 170 4.0 9.0 0.00 0.00 0.00 45 1011.9
20260504030312 53 267 4.0 9.0 0.00 0.00 0.00 45 1012.0
20260504025806 53 221 3.0 9.0 0.00 0.00 0.00 45 1012.0
20260504025300 53 202 3.0 10.0 0.00 0.00 0.00 45 1012.1
20260504024754 53 221 3.0 10.0 0.00 0.00 0.00 45 1012.1
20260504024248 53 207 3.0 11.0 0.00 0.00 0.00 46 1012.2
20260504023742 52 242 4.0 11.0 0.00 0.00 0.00 46 1012.2
20260504023237 52 225 4.0 12.0 0.00 0.00 0.00 46 1012.3
20260504022730 52 167 4.0 12.0 0.00 0.00 0.00 47 1012.2
20260504022224 52 200 3.0 9.0 0.00 0.00 0.00 48 1012.3
20260504021718 52 190 3.0 15.0 0.00 0.00 0.00 48 1012.2
20260504021212 52 225 4.0 15.0 0.00 0.00 0.00 48 1012.2
20260504020707 52 173 3.0 8.0 0.00 0.00 0.00 49 1012.3
20260504020200 51 217 3.0 8.0 0.00 0.00 0.00 49 1012.3
20260504015924 51 171 3.0 9.0 0.00 0.00 0.00 49 1012.3
20260504015418 51 197 3.0 9.0 0.00 0.00 0.00 49 1012.2
20260504014642 51 182 3.0 11.0 0.00 0.00 0.00 49 1012.2
20260504014136 51 212 2.0 11.0 0.00 0.00 0.00 50 1012.2
20260504013631 51 221 3.0 10.0 0.00 0.00 0.00 50 1012.3
20260504013124 51 188 4.0 10.0 0.00 0.00 0.00 49 1012.3
20260504012618 51 184 4.0 10.0 0.00 0.00 0.00 50 1012.3
20260504012113 51 198 4.0 14.0 0.00 0.00 0.00 50 1012.4
20260504011606 51 178 5.0 14.0 0.00 0.00 0.00 49 1012.4
20260504011100 51 153 4.0 12.0 0.00 0.00 0.00 49 1012.3
20260504010554 51 135 3.0 11.0 0.00 0.00 0.00 49 1012.4
20260504010051 51 264 4.0 11.0 0.00 0.00 0.00 48 1012.5
20260504005551 51 253 4.0 10.0 0.00 0.00 0.00 48 1012.5
20260504005052 51 234 4.0 11.0 0.00 0.00 0.00 47 1012.5
20260504004552 51 156 4.0 13.0 0.00 0.00 0.00 47 1012.4
20260504004052 51 194 3.0 13.0 0.00 0.00 0.00 47 1012.5
20260504003823 51 314 3.0 10.0 0.00 0.00 0.00 47 1012.5
20260504003051 51 205 3.0 9.0 0.00 0.00 0.00 47 1012.5
20260504002552 51 188 3.0 9.0 0.00 0.00 0.00 47 1012.5
20260504002321 51 207 3.0 10.0 0.00 0.00 0.00 47 1012.5
20260504001820 52 159 3.0 10.0 0.00 0.00 0.00 47 1012.5
20260504001321 51 190 3.0 8.0 0.00 0.00 0.00 47 1012.5
20260504000550 51 181 2.0 7.0 0.00 0.00 0.00 48 1012.5
20260504000049 51 191 2.0 9.0 0.00 0.00 0.00 48 1012.5
20260503235550 51 163 2.0 9.0 0.00 0.00 0.00 49 1012.4
20260503235049 51 190 2.0 7.0 0.00 0.00 0.00 49 1012.5
20260503234544 51 216 2.0 7.0 0.00 0.00 0.00 49 1012.5
20260503234042 51 189 2.0 8.0 0.00 0.00 0.00 49 1012.7
20260503233541 51 202 2.0 8.0 0.00 0.00 0.00 49 1012.7
20260503233041 51 267 2.0 6.0 0.00 0.00 0.00 49 1012.9
20260503232541 51 186 3.0 9.0 0.00 0.00 0.00 49 1012.9
20260503232042 51 202 3.0 9.0 0.00 0.00 0.00 48 1012.9
20260503231542 51 271 3.0 8.0 0.00 0.00 0.00 48 1013.0
20260503231042 52 203 3.0 10.0 0.00 0.00 0.00 48 1013.0
20260503230541 52 243 3.0 10.0 0.00 0.00 0.00 48 1013.0
20260503230042 52 223 3.0 8.0 0.00 0.00 0.00 48 1013.1
20260503225539 52 191 4.0 8.0 0.00 0.00 0.00 48 1013.2
20260503225039 52 148 3.0 9.0 0.00 0.00 0.00 48 1013.3
20260503224542 52 190 3.0 9.0 0.00 0.00 0.00 48 1013.5
20260503224042 52 232 4.0 12.0 0.00 0.00 0.00 48 1013.5
20260503223543 52 249 5.0 15.0 0.00 0.00 0.00 48 1014.0
20260503223039 52 250 5.0 15.0 0.00 0.00 0.00 48 1014.1
20260503222540 52 230 6.0 17.0 0.00 0.00 0.00 48 1014.0
20260503222311 52 238 7.0 17.0 0.00 0.00 0.00 48 1014.2
20260503221540 52 228 7.0 18.0 0.00 0.00 0.00 47 1014.3
20260503221040 53 252 7.0 18.0 0.00 0.00 0.00 47 1014.4
20260503220539 53 268 8.0 22.0 0.00 0.00 0.00 46 1014.3
20260503220036 53 309 8.0 22.0 0.00 0.00 0.00 45 1014.3
20260503215536 54 250 8.0 20.0 0.00 0.00 0.00 44 1014.3
20260503215035 54 250 8.0 20.0 0.00 0.00 0.00 44 1014.4
20260503214536 55 227 8.0 20.0 0.00 0.00 0.00 42 1014.4
20260503214036 56 266 7.0 20.0 0.00 0.00 0.00 41 1014.2
20260503213536 57 210 8.0 24.0 0.00 0.00 0.00 39 1014.2
20260503213035 58 246 7.0 24.0 0.00 0.00 0.00 35 1014.0
20260503212535 60 239 4.0 12.0 0.00 0.00 0.00 28 1013.7
20260503212036 60 233 5.0 19.0 0.00 0.00 0.00 29 1013.5
20260503211803 60 314 5.0 19.0 0.00 0.00 0.00 27 1013.7
20260503211302 60 244 5.0 20.0 0.00 0.00 0.00 27 1013.6
20260503210531 60 240 5.0 20.0 0.00 0.00 0.00 26 1013.7
20260503210302 60 277 5.0 16.0 0.00 0.00 0.00 28 1013.7
20260503205803 60 251 5.0 19.0 0.00 0.00 0.00 26 1013.8
20260503205638 60 230 7.0 19.0 0.00 0.00 0.00 26 1013.8
20260503204532 60 250 8.0 18.0 0.00 0.00 0.00 25 1014.0
20260503204302 60 244 8.0 18.0 0.00 0.00 0.00 25 1014.1
20260503203532 60 220 7.0 17.0 0.00 0.00 0.00 24 1013.9
20260503203257 60 248 6.0 17.0 0.00 0.00 0.00 25 1014.1
20260503202525 61 225 7.0 17.0 0.00 0.00 0.00 26 1014.2
20260503202025 61 277 6.0 15.0 0.00 0.00 0.00 26 1014.2
20260503201526 61 240 5.0 14.0 0.00 0.00 0.00 26 1014.2
20260503201026 61 248 6.0 20.0 0.00 0.00 0.00 25 1014.3
20260503200525 61 313 7.0 21.0 0.00 0.00 0.00 25 1014.4
20260503200255 61 240 7.0 21.0 0.00 0.00 0.00 25 1014.4
20260503195754 62 234 6.0 18.0 0.00 0.00 0.00 25 1014.5
20260503195024 62 249 5.0 12.0 0.00 0.00 0.00 25 1014.5
20260503194521 62 306 6.0 22.0 0.00 0.00 0.00 25 1014.5
20260503194020 62 222 7.0 22.0 0.00 0.00 0.00 24 1014.6
20260503193519 62 258 5.0 15.0 0.00 0.00 0.00 23 1014.6
20260503193020 62 355 6.0 14.0 0.00 0.00 0.00 25 1014.6
20260503192520 62 281 7.0 14.0 0.00 0.00 0.00 24 1014.6
20260503192019 62 244 6.0 17.0 0.00 0.00 0.00 24 1014.7
20260503191512 62 190 6.0 17.0 0.00 0.00 0.00 24 1014.8
20260503191006 61 247 8.0 21.0 0.00 0.00 0.00 24 1014.8
20260503190501 61 225 8.0 21.0 0.00 0.00 0.00 23 1014.9
20260503185954 62 242 7.0 19.0 0.00 0.00 0.00 23 1014.8
20260503185453 62 207 7.0 18.0 0.00 0.00 0.00 25 1015.0
20260503184954 61 263 7.0 18.0 0.00 0.00 0.00 25 1015.1
20260503184453 61 198 8.0 19.0 0.00 0.00 0.00 25 1015.3
20260503183953 61 161 9.0 19.0 0.00 0.00 0.00 25 1015.5
20260503183453 61 252 8.0 19.0 0.00 0.00 0.00 24 1015.7
20260503182956 61 243 7.0 18.0 0.00 0.00 0.00 23 1015.6
20260503182453 61 259 7.0 19.0 0.00 0.00 0.00 24 1015.7
20260503181954 61 267 7.0 19.0 0.00 0.00 0.00 24 1015.7
20260503181454 61 240 6.0 18.0 0.00 0.00 0.00 25 1015.8
20260503181223 61 201 7.0 20.0 0.00 0.00 0.00 25 1015.7
20260503180724 61 292 7.0 20.0 0.00 0.00 0.00 24 1015.9
20260503175953 61 246 7.0 19.0 0.00 0.00 0.00 24 1015.9
20260503175453 61 202 6.0 18.0 0.00 0.00 0.00 24 1015.9
20260503174953 60 271 7.0 20.0 0.00 0.00 0.00 28 1016.0
20260503174453 60 265 8.0 20.0 0.00 0.00 0.00 24 1016.3
20260503173952 60 207 6.0 18.0 0.00 0.00 0.00 25 1016.1
20260503173447 60 205 7.0 19.0 0.00 0.00 0.00 26 1016.2
20260503172940 60 296 6.0 19.0 0.00 0.00 0.00 26 1016.3
20260503172435 60 263 7.0 19.0 0.00 0.00 0.00 25 1016.4
20260503171928 60 261 8.0 20.0 0.00 0.00 0.00 26 1016.4
20260503171422 60 245 6.0 20.0 0.00 0.00 0.00 25 1016.3
20260503170917 60 215 6.0 17.0 0.00 0.00 0.00 24 1016.5
20260503170642 60 273 5.0 17.0 0.00 0.00 0.00 25 1016.5
20260503170136 60 233 4.0 13.0 0.00 0.00 0.00 27 1016.5
20260503150652 56 209 5.0 17.0 0.00 0.00 0.00 35 1017.6
20260503150420 56 311 6.0 17.0 0.00 0.00 0.00 33 1017.6